| time (UTC) | temp F | wind direction | speed MPH | gust MPH | rain 1hr in | rain 24hr in | rain mn in | humidity % | barometer mb |
| 20260831134611 | 60 | 255 | 24.0 | 32.0 | 0.00 | 0.00 | 0.00 | 45 | 1012.1 |
| 20260831133110 | 59 | 262 | 21.0 | 30.0 | 0.00 | 0.00 | 0.00 | 47 | 1012.3 |
| 20260831131610 | 58 | 266 | 17.0 | 24.0 | 0.00 | 0.00 | 0.00 | 50 | 1012.3 |
| 20260831130139 | 57 | 252 | 17.0 | 22.0 | 0.00 | 0.00 | 0.00 | 52 | 1012.2 |
| 20260831124608 | 56 | 257 | 16.0 | 26.0 | 0.00 | 0.00 | 0.00 | 53 | 1012.1 |
| 20260831123109 | 56 | 238 | 16.0 | 22.0 | 0.00 | 0.00 | 0.00 | 55 | 1011.8 |
| 20260831121608 | 55 | 257 | 14.0 | 20.0 | 0.00 | 0.00 | 0.00 | 56 | 1011.9 |
| 20260831120146 | 56 | 240 | 14.0 | 22.0 | 0.00 | 0.00 | 0.00 | 55 | 1011.7 |
| 20260831114607 | 56 | 251 | 17.0 | 27.0 | 0.00 | 0.00 | 0.00 | 53 | 1011.8 |
| 20260831113105 | 57 | 245 | 20.0 | 30.0 | 0.00 | 0.00 | 0.00 | 52 | 1011.7 |
| 20260831111606 | 57 | 245 | 18.0 | 26.0 | 0.00 | 0.00 | 0.00 | 53 | 1011.5 |
| 20260831110112 | 56 | 262 | 15.0 | 20.0 | 0.00 | 0.00 | 0.00 | 56 | 1011.5 |
| 20260831104608 | 55 | 250 | 16.0 | 21.0 | 0.00 | 0.00 | 0.00 | 59 | 1011.5 |
| 20260831103104 | 54 | 261 | 14.0 | 18.0 | 0.00 | 0.00 | 0.00 | 63 | 1011.5 |
| 20260831101623 | 56 | 248 | 15.0 | 21.0 | 0.00 | 0.00 | 0.00 | 59 | 1011.4 |
| 20260831100108 | 57 | 268 | 15.0 | 21.0 | 0.00 | 0.00 | 0.00 | 56 | 1011.5 |
| 20260831094610 | 57 | 269 | 16.0 | 22.0 | 0.00 | 0.00 | 0.00 | 57 | 1011.7 |
| 20260831093115 | 56 | 259 | 15.0 | 20.0 | 0.00 | 0.00 | 0.00 | 63 | 1011.7 |
| 20260831091606 | 49 | 228 | 6.0 | 14.0 | 0.00 | 0.00 | 0.00 | 82 | 1011.8 |
| 20260831090124 | 51 | 257 | 9.0 | 12.0 | 0.00 | 0.00 | 0.00 | 81 | 1011.5 |
| 20260831084605 | 49 | 248 | 9.0 | 11.0 | 0.00 | 0.00 | 0.00 | 81 | 1011.4 |
| 20260831083108 | 49 | 242 | 7.0 | 9.0 | 0.00 | 0.00 | 0.00 | 81 | 1011.2 |
| 20260831081608 | 50 | 233 | 5.0 | 10.0 | 0.00 | 0.00 | 0.00 | 80 | 1011.1 |
| 20260831080111 | 50 | 230 | 1.0 | 10.0 | 0.00 | 0.00 | 0.00 | 79 | 1011.2 |
| 20260831074608 | 51 | 260 | 8.0 | 11.0 | 0.00 | 0.00 | 0.00 | 78 | 1011.1 |
| 20260831073125 | 51 | 255 | 9.0 | 11.0 | 0.00 | 0.00 | 0.00 | 78 | 1010.9 |
| 20260831071609 | 50 | 244 | 9.0 | 11.0 | 0.00 | 0.00 | 0.00 | 79 | 1010.9 |
| 20260831070138 | 51 | 257 | 8.0 | 9.0 | 0.00 | 0.00 | 0.00 | 78 | 1011.1 |
| 20260831064604 | 51 | 241 | 5.0 | 9.0 | 0.00 | 0.00 | 0.00 | 77 | 1011.2 |
| 20260831063107 | 50 | 240 | 1.0 | 9.0 | 0.00 | 0.00 | 0.00 | 80 | 1011.3 |
| 20260831061610 | 51 | 168 | 2.0 | 5.0 | 0.00 | 0.00 | 0.00 | 76 | 1011.4 |
| 20260831060112 | 51 | 0 | 0.0 | 8.0 | 0.00 | 0.00 | 0.00 | 75 | 1011.4 |
| 20260831054606 | 56 | 264 | 8.0 | 10.0 | 0.00 | 0.00 | 0.00 | 69 | 1011.5 |
| 20260831053109 | 56 | 292 | 8.0 | 10.0 | 0.00 | 0.00 | 0.00 | 69 | 1011.4 |
| 20260831051622 | 55 | 241 | 8.0 | 11.0 | 0.00 | 0.00 | 0.00 | 70 | 1011.5 |
| 20260831050109 | 55 | 263 | 8.0 | 11.0 | 0.00 | 0.00 | 0.00 | 71 | 1011.5 |
| 20260831044605 | 55 | 267 | 8.0 | 10.0 | 0.00 | 0.00 | 0.00 | 72 | 1011.5 |
| 20260831043108 | 55 | 266 | 7.0 | 9.0 | 0.00 | 0.00 | 0.00 | 72 | 1011.6 |
| 20260831041616 | 56 | 279 | 7.0 | 9.0 | 0.00 | 0.00 | 0.00 | 72 | 1011.8 |
| 20260831040107 | 56 | 271 | 6.0 | 9.0 | 0.00 | 0.00 | 0.00 | 71 | 1011.8 |
| 20260831034606 | 57 | 286 | 7.0 | 9.0 | 0.00 | 0.00 | 0.00 | 71 | 1011.7 |
| 20260831033108 | 56 | 268 | 7.0 | 9.0 | 0.00 | 0.00 | 0.00 | 72 | 1011.9 |
| 20260831031606 | 56 | 279 | 7.0 | 9.0 | 0.00 | 0.00 | 0.00 | 72 | 1011.9 |
| 20260831030106 | 56 | 280 | 6.0 | 8.0 | 0.00 | 0.00 | 0.00 | 72 | 1011.8 |
| 20260831024619 | 58 | 280 | 4.0 | 7.0 | 0.00 | 0.00 | 0.00 | 69 | 1011.8 |
| 20260831023105 | 58 | 273 | 5.0 | 8.0 | 0.00 | 0.00 | 0.00 | 69 | 1011.7 |
| 20260831021605 | 58 | 287 | 6.0 | 8.0 | 0.00 | 0.00 | 0.00 | 68 | 1011.3 |
| 20260831020109 | 60 | 291 | 6.0 | 10.0 | 0.00 | 0.00 | 0.00 | 66 | 1011.1 |
| 20260831014610 | 61 | 297 | 6.0 | 10.0 | 0.00 | 0.00 | 0.00 | 63 | 1011.0 |
| 20260831013106 | 62 | 280 | 7.0 | 12.0 | 0.00 | 0.00 | 0.00 | 62 | 1011.0 |
| 20260831011604 | 63 | 306 | 7.0 | 12.0 | 0.00 | 0.00 | 0.00 | 62 | 1010.8 |
| 20260831010134 | 64 | 286 | 10.0 | 15.0 | 0.00 | 0.00 | 0.00 | 60 | 1010.9 |
| 20260831004615 | 65 | 309 | 13.0 | 18.0 | 0.00 | 0.00 | 0.00 | 57 | 1011.1 |
| 20260831003111 | 65 | 277 | 12.0 | 17.0 | 0.00 | 0.00 | 0.00 | 55 | 1010.9 |
| 20260831001611 | 66 | 261 | 12.0 | 19.0 | 0.00 | 0.00 | 0.00 | 52 | 1010.6 |
| 20260831000109 | 66 | 244 | 10.0 | 15.0 | 0.00 | 0.00 | 0.00 | 56 | 1010.6 |
| 20260830234605 | 64 | 246 | 10.0 | 14.0 | 0.00 | 0.00 | 0.00 | 59 | 1010.6 |
| 20260830233107 | 63 | 227 | 4.0 | 11.0 | 0.00 | 0.00 | 0.00 | 68 | 1010.8 |
| 20260830231609 | 61 | 249 | 4.0 | 8.0 | 0.00 | 0.00 | 0.00 | 70 | 1011.2 |
| 20260830230114 | 60 | 240 | 0.0 | 5.0 | 0.00 | 0.00 | 0.00 | 73 | 1011.3 |
| 20260830224610 | 60 | 0 | 0.0 | 6.0 | 0.00 | 0.00 | 0.00 | 75 | 1010.5 |
| 20260830223105 | 60 | 240 | 1.0 | 6.0 | 0.00 | 0.00 | 0.00 | 75 | 1011.1 |
| 20260830221605 | 59 | 247 | 8.0 | 17.0 | 0.00 | 0.00 | 0.00 | 76 | 1011.5 |
| 20260830220129 | 61 | 298 | 16.0 | 31.0 | 0.00 | 0.00 | 0.00 | 72 | 1011.1 |
| 20260830214605 | 62 | 288 | 18.0 | 33.0 | 0.00 | 0.00 | 0.00 | 70 | 1012.2 |
| 20260830213103 | 63 | 254 | 19.0 | 30.0 | 0.00 | 0.00 | 0.00 | 65 | 1011.9 |
| 20260830211605 | 64 | 313 | 20.0 | 33.0 | 0.00 | 0.00 | 0.00 | 65 | 1011.6 |
| 20260830210109 | 63 | 325 | 23.0 | 36.0 | 0.00 | 0.00 | 0.00 | 66 | 1011.9 |
| 20260830204607 | 64 | 295 | 25.0 | 40.0 | 0.00 | 0.00 | 0.00 | 66 | 1011.9 |
| 20260830203123 | 64 | 289 | 25.0 | 44.0 | 0.00 | 0.00 | 0.00 | 66 | 1011.7 |
| 20260830201605 | 68 | 308 | 22.0 | 32.0 | 0.00 | 0.00 | 0.00 | 57 | 1011.4 |
| 20260830200105 | 70 | 288 | 21.0 | 33.0 | 0.00 | 0.00 | 0.00 | 58 | 1010.1 |
| 20260830194609 | 68 | 331 | 19.0 | 36.0 | 0.00 | 0.00 | 0.00 | 62 | 1009.7 |
| 20260830193106 | 68 | 338 | 21.0 | 31.0 | 0.00 | 0.00 | 0.00 | 65 | 1009.6 |
| 20260830191618 | 67 | 332 | 19.0 | 31.0 | 0.00 | 0.00 | 0.00 | 68 | 1009.7 |
| 20260830190106 | 67 | 303 | 18.0 | 30.0 | 0.00 | 0.00 | 0.00 | 70 | 1009.8 |
| 20260830184613 | 66 | 329 | 15.0 | 28.0 | 0.00 | 0.00 | 0.00 | 73 | 1010.0 |
| 20260830183124 | 66 | 319 | 19.0 | 29.0 | 0.00 | 0.00 | 0.00 | 74 | 1009.2 |
| 20260830181625 | 68 | 340 | 17.0 | 28.0 | 0.00 | 0.00 | 0.00 | 70 | 1009.3 |
| 20260830180112 | 69 | 282 | 18.0 | 29.0 | 0.00 | 0.00 | 0.00 | 67 | 1009.7 |
| 20260830174605 | 71 | 302 | 15.0 | 23.0 | 0.00 | 0.00 | 0.00 | 65 | 1009.3 |
| 20260830173145 | 71 | 292 | 18.0 | 26.0 | 0.00 | 0.00 | 0.00 | 66 | 1009.1 |
| 20260830171607 | 70 | 300 | 17.0 | 27.0 | 0.00 | 0.00 | 0.00 | 68 | 1009.2 |
| 20260830170110 | 71 | 322 | 15.0 | 26.0 | 0.00 | 0.00 | 0.00 | 70 | 1009.1 |
| 20260830164609 | 72 | 347 | 11.0 | 23.0 | 0.00 | 0.00 | 0.00 | 70 | 1009.0 |
| 20260830163109 | 71 | 298 | 10.0 | 20.0 | 0.00 | 0.00 | 0.00 | 73 | 1009.0 |
| 20260830161635 | 69 | 298 | 13.0 | 17.0 | 0.00 | 0.00 | 0.00 | 76 | 1009.0 |
| 20260830160106 | 69 | 279 | 10.0 | 17.0 | 0.00 | 0.00 | 0.00 | 75 | 1009.2 |
| 20260830154607 | 70 | 266 | 9.0 | 17.0 | 0.00 | 0.00 | 0.00 | 66 | 1008.9 |
| 20260830153110 | 70 | 253 | 12.0 | 16.0 | 0.00 | 0.00 | 0.00 | 75 | 1008.7 |
| 20260830151603 | 69 | 252 | 8.0 | 13.0 | 0.00 | 0.00 | 0.00 | 69 | 1008.7 |
| 20260830150110 | 69 | 220 | 4.0 | 7.0 | 0.00 | 0.00 | 0.00 | 70 | 1008.7 |
| 20260830144618 | 68 | 215 | 0.0 | 5.0 | 0.00 | 0.00 | 0.00 | 76 | 1008.5 |
| 20260830143121 | 66 | 0 | 1.0 | 8.0 | 0.00 | 0.00 | 0.00 | 86 | 1008.4 |
| 20260830141619 | 63 | 0 | 0.0 | 0.0 | 0.00 | 0.00 | 0.00 | 92 | 1008.5 |
| 20260830140123 | 62 | 0 | 0.0 | 0.0 | 0.00 | 0.00 | 0.00 | 93 | 1008.4 |